This is the latest recevied weather packets stored in our database for station/object EA1HTW-13. If no packets are shown the sender has not sent any weather packets the latest 10 day(s).
| Time | Temp. | Humidity | Pressure | Rain* | Wind** | Luminosity | Snow |
|---|---|---|---|---|---|---|---|
| 1777920434 | 16.11° C | 61% | 1009.9 hPa | 0 mm | - | - | - |
| 1777919895 | 16.11° C | 61% | 1009.7 hPa | 0 mm | - | - | - |
| 1777919356 | 16.11° C | 61% | 1009.6 hPa | 0 mm | - | - | - |
| 1777918814 | 16.11° C | 62% | 1009.6 hPa | 0 mm | - | - | - |
| 1777918276 | 16.11° C | 62% | 1009.5 hPa | 0 mm | - | - | - |
| 1777917735 | 16.11° C | 61% | 1009.6 hPa | 0 mm | - | - | - |
| 1777917194 | 16.67° C | 60% | 1009.8 hPa | 0 mm | - | - | - |
| 1777916655 | 16.67° C | 59% | 1009.7 hPa | 0 mm | - | - | - |
| 1777916114 | 17.22° C | 59% | 1009.7 hPa | 0 mm | - | - | - |
| 1777915574 | 17.78° C | 53% | 1009.7 hPa | 0 mm | - | - | - |
| 1777915035 | 17.78° C | 52% | 1009.6 hPa | 0 mm | - | - | - |
| 1777914494 | 17.78° C | 51% | 1009.5 hPa | 0 mm | - | - | - |
| 1777913954 | 18.33° C | 51% | 1009.7 hPa | 0 mm | - | - | - |
| 1777913415 | 18.89° C | 50% | 1009.5 hPa | 0 mm | - | - | - |
| 1777912874 | 19.44° C | 47% | 1009.6 hPa | 0 mm | - | - | - |
| 1777912334 | 20.56° C | 45% | 1009.5 hPa | 0 mm | - | - | - |
| 1777911795 | 20° C | 46% | 1009.5 hPa | 0 mm | - | - | - |
| 1777911254 | 21.67° C | 43% | 1009.6 hPa | 0 mm | - | - | - |
| 1777910714 | 22.78° C | 40% | 1009.3 hPa | 0 mm | - | - | - |
| 1777910175 | 21.67° C | 46% | 1009.4 hPa | 0 mm | - | - | - |
| 1777909634 | 20.56° C | 47% | 1009.6 hPa | 0 mm | - | - | - |
| 1777909094 | 19.44° C | 54% | 1009.6 hPa | 0 mm | - | - | - |
| 1777908555 | 19.44° C | 47% | 1009.8 hPa | 0 mm | - | - | - |
| 1777908015 | 21.11° C | 43% | 1009.5 hPa | 0 mm | - | - | - |
| 1777907474 | 22.22° C | 42% | 1009.6 hPa | 0 mm | - | - | - |
* Rain latest hour (hover to see other rain measurements)
** Current wind speed in m/s (hover to see current wind gust speed)